{"data":{"norad_id":63993,"intl_designator":"2025-100M","name":"SCS-01 M","alt_names":[],"object_type":"PAYLOAD","status":"ACTIVE","operator":null,"country":"PRC","launch_date":"2025-05-14","launch_site_code":"JSC","launch_vehicle":null,"mission":null,"orbit_class":"UNKNOWN","rcs_meters":null,"size_class":null,"mass_kg":null,"dimensions":null,"purposes":[],"wikipedia_slug":null,"has_3d_model":false,"image_url":null,"decayed_at":null,"tle_current":{"epoch":"2026-05-25T04:18:05.295744Z","epoch_age_seconds":69632,"freshness":"FRESH","line1":"1 63993U 25100M   26145.17922796  .00028710  00000+0  87407-3 0  9995","line2":"2 63993  97.3662 221.5794 0009282  39.1370 321.0542 15.33916771 57326","mean_motion":15.33916771,"eccentricity":0.0009282,"inclination_deg":97.3662,"raan_deg":221.5794,"arg_perigee_deg":39.137,"mean_anomaly_deg":321.0542,"bstar":0.00087407,"rev_number":5732,"period_min":93.877322891595,"perigee_km":457.78887427492,"apogee_km":470.49087706692,"semimajor_km":6842.2768756709,"source":"CELESTRAK","updated_at":"2026-05-25T13:38:04.150373Z"}}}